www.pogodaiklimat.ru

Погода и климат >> Архив погоды >> Россия >> Волгоградская область >> Камышин


ПОГОДА в Камышине

АРХИВ ПОГОДЫ в Камышине

Время (UTC), дата Ветер
(напр.,м/с)
 
Видим.   Явления Облачность Т
(С)
Тd
(С)
f
(%)
Тe
(С)
Тes
(С)
Комфортность P
(гПа)
Po
(гПа)
Тmin
(С)
Tmax
(С)
R
(мм)
R24
(мм)
S
(см)
18 11.08 СЗ 4
{14}
20 км 3/1 600 м
[Sc Ac trans]
+14.3 +9.6 73 +13 +13 очень
холодно
1012.1 997.5
21 11.08 СЗ 5 20 км 4/3 600 м
[Sc Ac trans]
+13.2 +8.8 75 +11 +11 очень
холодно
1012.4 997.7
00 12.08 СЗ 6
{10}
10 км 1/1 600 м
[Sc]
+11.6 +8.2 80 +9 +9 очень
холодно
1012.6 997.9
03 12.08 СЗ 5
{10}
10 км 3/3 600 м
[Sc]
+12.0 +8.0 76 +10 +10 очень
холодно
1013.7 998.9 +11.1
06 12.08 СЗ 7-12
{12}
20 км 3/1 1000 м
[Sc Ac trans]
+17.0 +7.3 53 +16 +18 очень
холодно
1013.8 999.3
09 12.08 СЗ 7-12
{15}
20 км 3/3 1000 м
[Cu hum]
+19.6 +6.5 42 +20 +23 очень
холодно
1014.4 1000.0
12 12.08 СЗ 7-12
{14}
20 км 3/3 1000 м
[Cu hum]
+20.7 +4.9 35 +21 +23 комфорт 1014.5 1000.2
15 12.08 СЗ 6-10
{14}
20 км ясно +19.7 +4.6 37 +20 +20 очень
холодно
1014.8 1000.4 +20.8
18 12.08 СЗ 4
{11}
20 км ясно +15.4 +6.3 55 +15 +15 очень
холодно
1016.2 1001.6
21 12.08 СЗ 3 20 км ясно +12.3 +5.7 64 +11 +11 очень
холодно
1016.8 1002.0
00 13.08 СЗ 4 20 км ясно +10.5 +5.6 72 +8 +8 очень
холодно
1017.5 1002.6
03 13.08 СЗ 4 10 км 1/0
[Ac lent]
+10.1 +5.6 74 +8 +8 очень
холодно
1018.3 1003.4 +9.4
06 13.08 СЗ 7-10
{11}
20 км 1/0
[Ci fib]
+17.1 +3.4 40 +16 +18 очень
холодно
1018.2 1003.7
09 13.08 СЗ 6-12
{12}
20 км 3/0
[Ci fib]
+20.8 +1.1 27 +21 +26 комфорт 1017.1 1002.7
12 13.08 СЗ 7-11
{12}
20 км 3/0
[Ci fib]
+23.2 +0.5 22 +22 +24 комфорт 1016.4 1002.1
15 13.08 С 4
{12}
20 км 5/0
[Ci sp]
+22.3 +0.1 23 +22 +22 комфорт 1016.3 1002.0 +23.5
18 13.08 СЗ 3 20 км 9/0
[Ac lent Ci sp]
+16.6 +3.2 41 +16 +16 очень
холодно
1017.5 1002.9
21 13.08 СЗ 3 20 км 8/0
[Ci sp]
+15.9 +5.8 51 +16 +16 очень
холодно
1017.5 1002.9
00 14.08 СЗ 3 20 км 5/0
[Ci sp]
+15.0 +7.6 61 +14 +14 очень
холодно
1017.4 1002.7
03 14.08 З 1 10 км 3/0
[Ac lent Ci fib]
+16.8 +9.8 63 +18 +18 холодно 1017.5 1003.0 +13.5
06 14.08 ЮЗ 1 20 км 1/0
[Ac lent]
+23.0 +11.1 47 +25 +35 комфорт 1017.3 1003.1
09 14.08 ЮЗ 2 20 км 4/0
[Ac trans]
+27.8 +10.4 34 +28 +39 жарко 1015.3 1001.3
12 14.08 З 6-10
{10}
10 км 3/0
[Ac trans]
+31.0 +10.8 29 +31 +34 жарко 1013.3 999.5
15 14.08 З 4
{10}
10 км 6/0
[Ac lent Ci fib]
+30.3 +12.1 33 +31 +31 жарко 1012.7 998.9 +31.5
18 14.08 З 6 10 км 3/0
[Ac lent Ci fib]
+27.5 +12.5 39 +29 +29 жарко 1013.4 999.4
21 14.08 СЗ 5
{10}
20 км ясно +23.9 +13.4 52 +26 +26 жарко 1013.5 999.4
00 15.08 СЗ 4 20 км ясно +22.8 +14.0 58 +26 +26 жарко 1013.4 999.2
03 15.08 СЗ 3 10 км ясно +21.9 +14.9 64 +25 +26 комфорт 1014.4 1000.2 +21.8
06 15.08 В 4 10 км ясно +25.9 +17.0 58 +30 +35 душно 1015.0 1000.9
09 15.08 СВ 3 10 км 1/1 1000 м
[Cu hum]
+30.1 +17.0 45 +34 +44 очень
душно
1014.7 1000.8
12 15.08 В 2 10 км ясно +31.6 +13.0 32 +32 +41 жарко 1013.8 1000.0
15 15.08 СВ 2 10 км ясно +29.6 +14.0 39 +32 +32 душно 1013.2 999.4 +31.7
18 15.08 В 3 20 км ясно +26.3 +13.2 44 +28 +28 жарко 1013.9 999.9
21 15.08 В 6-11
{11}
20 км ясно +25.2 +9.9 38 +26 +26 жарко 1013.8 999.7
00 16.08 В 2
{11}
20 км 3/0
[Ci fib]
+21.4 +10.7 50 +23 +23 комфорт 1013.6 999.4
03 16.08 СВ 3 10 км 4/0
[Ac lent Ci fib]
+19.9 +14.1 69 +22 +23 комфорт 1013.4 999.1 +19.5
06 16.08 Ю 3 10 км 4/0
[Ci sp]
+24.5 +12.8 48 +26 +33 жарко 1013.8 999.7
09 16.08 Ю 7 10 км 9/0
[Ac cast Ci sp]
+28.8 +7.5 26 +28 +31 жарко 1012.9 999.0
12 16.08 Ю 4 10 км 9/0
[Ac lent Ci sp]
+31.1 +7.7 23 +30 +34 жарко 1011.5 997.7
15 16.08 ЮВ 2 10 км 9/0
[Ac lent Ci sp]
+28.4 +8.9 29 +28 +29 жарко 1010.5 996.6 +31.1
18 16.08 ЮВ 3 20 км 9/0
[Ac trans Ci fib]
+25.9 +9.7 36 +27 +27 жарко 1011.4 997.4
21 16.08 Ю 3 20 км 10/0
[Ac trans Cs]
+23.4 +9.8 42 +25 +25 комфорт 1011.5 997.3
00 17.08 Ю 3 20 км 10/0
[Ac As]
+20.9 +10.5 51 +23 +23 комфорт 1012.1 997.9
03 17.08 ЮВ 2 10 км 9/0
[Ac trans Ci fib]
+18.3 +11.6 65 +19 +20 прохладно 1012.5 998.1 +18.3
06 17.08 СВ 3 10 км 9/0
[Ac trans Ci fib]
+21.6 +12.2 55 +24 +28 комфорт 1012.5 998.2 +18.2
09 17.08 СВ 3 20 км 9/0
[Ci sp]
+29.4 +10.1 30 +29 +39 жарко 1011.1 997.2
12 17.08 Ю 7
{12}
20 км 4/0
[Ac cast]
+31.5 +6.2 20 +30 +31 жарко 1009.8 996.0
15 17.08 Ю 4 10 км осадки на расстоянии 9/3 1000 м
[Cb calv Ac lent]
+28.9 +9.6 30 +29 +29 жарко 1009.5 995.7 +32.7
18 17.08 Ю 5-10
{10}
20 км 10/0
[Ac As]
+27.0 +9.1 32 +27 +27 жарко 1010.6 996.6
21 17.08 Ю 4
{10}
20 км 8/0
[Ac trans]
+24.6 +10.9 42 +26 +26 жарко 1010.8 996.7
00 18.08 Ю 3 20 км 9/0
[Ac trans]
+23.1 +10.6 45 +25 +25 комфорт 1011.1 996.9
03 18.08 Ю 3 10 км осадки на расстоянии 10/4 1000 м
[Cb calv Ac As]
+21.1 +13.3 61 +23 +24 комфорт 1011.8 997.6 +21.0
06 18.08 Ю 2 10 км 9/0
[Ac cast]
+23.5 +14.4 57 +26 +29 жарко 1012.9 998.7
09 18.08 ЮВ 2 20 км 6/0
[Ac cast Ci sp]
+29.6 +8.4 27 +29 +38 жарко 1012.4 998.5
12 18.08 Ю 6 20 км 3/0
[Ac trans Ci fib]
+32.8 +3.8 16 +30 +33 жарко 1012.0 998.2

 

Местоположение метеостанции Камышин (Волгоградская область, Россия): широта 50.07 долгота 45.37 высота над уровнем моря 119 м.

В архиве по умолчанию представлена погода в Камышине за последнюю неделю. Архивные данные за месяц целиком и за предыдущие месяцы, начиная с января 2011 года, Вы можете получить, выбрав интересующий диапазон дат из раскрывающегося списка и нажав кнопку "Ввод!".


*Определитесь, кто Вы:
робот инопланетянин человек

Внимание! Время в таблицах - всемирное. Для получения местного времени необходимо прибавить поправку, которая равна 3 ч.

Смотрите также архив погоды в соседних городах и на ближайших метеорологических станциях:

Погода в Ольховке (Волгоградская область, Россия) (63 км)
Погода в Даниловке (Волгоградская область, Россия) (95 км)
Погода в Рудне (Волгоградская область, Россия) (102 км)
Погода в Палласовке (Волгоградская область, Россия) (108 км)
Погода в Сплавнухе (Саратовская область, Россия) (111 км)
Погода в Фролове (Волгоградская область, Россия) (125 км)
Погода в Жанибеке (Западно-Казахстанская область, Казахстан) (127 км)
Погода в Иловле (Волгоградская область, Россия) (131 км)
Погода в Жанаказане (Западно-Казахстанская область, Казахстан) (133 км)
Погода в Эльтоне (Волгоградская область, Россия) (149 км)

Пояснения к столбцам:

Ветер - указаны скорость ветра в м/с - средняя за 10 мин, порывы в срок и между сроками (в фигурных скобках) и направление, откуда дует ветер: С - северный, СВ - северо-восточный, В - восточный, ЮВ - юго-восточный, Ю - южный, ЮЗ - юго-западный, З - западный, СЗ - северо-западный.
Видимость - горизонтальная дальность видимости в метрах или километрах. При видимости от 1 до 10 км при отсутствии осадков обычно наблюдается дымка, при ухудшении видимости до 1 км и менее - туман. В сухую погоду видимость может ухудшаться дымом, пылью или мглою.
Явления - указаны атмосферные явления, наблюдавшиеся в срок или в последний час перед сроком; фигурными скобками обозначены явления, наблюдавшиеся между сроками (за 1-3 часа до срока); квадратными скобками обозначены град или гололедные отложения с указанием их диаметра в мм.
Облачность - указаны через наклонную черту общая и нижняя облачность в баллах и высота нижней границы облаков в метрах; квадратными скобками обозначены формы облаков: Ci - перистые, Cs - перисто-слоистые, Cc - перисто-кучевые, Ac - высококучевые, As - высокослоистые, Sc - слоисто-кучевые, Ns - слоисто-дождевые, Cu - кучевые, Cb - кучево-дождевые. Подробнее классификацию облаков см. в Атласе облаков (PDF).
T - Температура воздуха - температура, измеренная на высоте 2 м над землей.
Td - Температура точки росы - температура, при понижении до которой содержащийся в воздухе водяной пар достигнет насыщения.
f - Относительная влажность воздуха - влажноcть воздуха, измеренная на высоте 2 м над землей.
Te - Эффективная температура - температура, которую ощущает одетый по сезону человек в тени. Характеристика душности погоды. При расчете учитывается влияние влажности воздуха и скорости ветра на теплоощущения человека.
Tes - Эффективная температура на солнце - температура, которую ощущает человек, с поправкой на солнечный нагрев. Характеристика знойности погоды. Зависит от высоты солнца над горизонтом, облачности и скорости ветра. Ночью, в пасмурную погоду, а также при ветре 12 м/с и более поправка равна нулю.
P - Атмосферное давление - приведенное к уровню моря атмосферное давление.
Po - Атмосферное давление - измеренное на уровне метеостанции атмосферное давление.
Tmin - Минимальная температура - минимум температуры воздуха на высоте 2 м над землей.
Tmax - Максимальная температура - максимум температуры воздуха на высоте 2 м над землей.
R - Количество осадков - Количество выпавших осадков за период времени, мм. При наведении курсора мыши на число - период времени, за который выпало указанное количество осадков.
R24 - Количество осадков - Количество выпавших осадков за 24 часа, мм.
S - Снежный покров - Высота снежного покрова, см. При наведении курсора мыши на число - состояние снежного покрова и степень покрытия местности в баллах.